Plymouth, NH

10:32 PM EDT on June 24, 2017 (GMT -0400)
Plymouth

Weather History for K1P1 - October, 2011

Change the Weather History Date:

Monday, October 24, 2011

  Actual Average (KLCI) Record (KLCI)
Temperature  
Mean Temperature 44 °F -  
Max Temperature 55 °F 57 °F 71 °F (1995)
Min Temperature 32 °F 35 °F 26 °F (2002)
Degree Days  
Heating Degree Days 22    
Moisture  
Dew Point 37 °F    
Average Humidity 87    
Maximum Humidity 100    
Minimum Humidity 58    
Precipitation  
Precipitation 0.00 in - - ()
Sea Level Pressure  
Sea Level Pressure 30.07 in    
Wind  
Wind Speed 1 mph (East)    
Max Wind Speed 7 mph    
Max Gust Speed -    
Visibility 6 miles    
Events Fog    
Averages and records for this station are not official NWS values.
T = Trace of Precipitation, MM = Missing Value Source: NWS Daily Summary

Daily Weather History Graph

Daily Weather History Graph

Search for Another Location

Airport or City:

Trip Planner

Search our weather history database for the weather conditions in past years. The results will help you decide how hot, cold, wet, or windy it might be!

Date:

Astronomy

Oct. 24, 2011 Rise Set
Actual Time 7:12 AM EDT 5:49 PM EDT
Civil Twilight 6:42 AM EDT 6:18 PM EDT
Nautical Twilight 6:09 AM EDT 6:52 PM EDT
Astronomical Twilight 5:35 AM EDT 7:25 PM EDT
Moon 4:23 AM EDT (10/24) 4:15 PM EDT (10/24)
Length of Visible Light 11h 36m
Length of Day
10h 37m
Waning Crescent, 7% of the Moon is Illuminated
Oct 24
Waning Crescent
Oct 26
New
Nov 2
First Quarter
Nov 10
Full
Nov 18
Last Quarter

Hourly Weather History & Observations

Time (EDT) Temp. Windchill Dew Point Humidity Pressure Visibility Wind Dir Wind Speed Gust Speed Precip Events Conditions
12:15 AM 33.8 °F - 33.8 °F 100% 30.13 in 4.0 mi Calm Calm - N/A   Clear
12:35 AM 33.8 °F - 33.8 °F 100% 30.13 in 3.0 mi Calm Calm - N/A   Clear
1:15 AM 32.0 °F - 32.0 °F 100% 30.14 in 4.0 mi Calm Calm - N/A   Clear
1:35 AM 32.0 °F - 32.0 °F 100% 30.15 in 4.0 mi Calm Calm - N/A   Clear
1:55 AM 32.0 °F - 32.0 °F 100% 30.15 in 4.0 mi Calm Calm - N/A   Scattered Clouds
2:15 AM 32.0 °F - 32.0 °F 100% 30.15 in 3.0 mi Calm Calm - N/A   Mostly Cloudy
2:35 AM 32.0 °F - 32.0 °F 100% 30.14 in 3.0 mi Calm Calm - N/A   Mostly Cloudy
2:55 AM 32.0 °F - 32.0 °F 100% 30.14 in 3.0 mi Calm Calm - N/A   Scattered Clouds
3:15 AM 32.0 °F - 32.0 °F 100% 30.14 in 2.5 mi Calm Calm - N/A   Clear
3:55 AM 32.0 °F - 32.0 °F 100% 30.13 in 0.8 mi Calm Calm - N/A   Overcast
4:15 AM 32.0 °F - 32.0 °F 100% 30.13 in 0.2 mi Calm Calm - N/A Fog Light Freezing Fog
4:35 AM 32.0 °F - 32.0 °F 100% 30.13 in 0.2 mi Calm Calm - N/A Fog Light Freezing Fog
4:55 AM 32.0 °F - 32.0 °F 100% 30.13 in 0.8 mi Calm Calm - N/A   Overcast
5:15 AM 32.0 °F - 32.0 °F 100% 30.13 in 0.2 mi Calm Calm - N/A Fog Light Freezing Fog
5:35 AM 32.0 °F - 32.0 °F 100% 30.13 in 0.2 mi Calm Calm - N/A Fog Light Freezing Fog
5:55 AM 32.0 °F - 32.0 °F 100% 30.13 in 0.2 mi Calm Calm - N/A Fog Light Freezing Fog
6:15 AM 32.0 °F - 32.0 °F 100% 30.13 in 0.2 mi Calm Calm - N/A Fog Light Freezing Fog
7:35 AM 32.0 °F - 32.0 °F 100% 30.13 in 0.2 mi Calm Calm - N/A Fog Light Freezing Fog
7:55 AM 32.0 °F - 32.0 °F 100% 30.13 in 0.2 mi Calm Calm - N/A Fog Light Freezing Fog
8:15 AM 32.0 °F - 32.0 °F 100% 30.14 in 0.2 mi Calm Calm - N/A Fog Light Freezing Fog
8:55 AM 32.0 °F - 32.0 °F 100% 30.14 in 0.2 mi Calm Calm - N/A Fog Fog
9:15 AM 32.0 °F - 32.0 °F 100% 30.13 in 0.2 mi Calm Calm - N/A Fog Fog
9:35 AM 32.0 °F - 32.0 °F 100% 30.13 in 0.5 mi Calm Calm - N/A Fog Fog
9:55 AM 33.8 °F - 33.8 °F 100% 30.12 in 4.0 mi Calm Calm - N/A   Mostly Cloudy
10:15 AM 35.6 °F - 35.6 °F 100% 30.12 in 7.0 mi Calm Calm - N/A   Scattered Clouds
10:35 AM 37.4 °F - 37.4 °F 100% 30.12 in 10.0 mi Calm Calm - N/A   Clear
10:55 AM 37.4 °F - 37.4 °F 100% 30.11 in 10.0 mi Calm Calm - N/A   Clear
11:15 AM 41.0 °F - 39.2 °F 93% 30.10 in 10.0 mi Calm Calm - N/A   Clear
11:35 AM 42.8 °F - 41.0 °F 93% 30.09 in 10.0 mi Calm Calm - N/A   Clear
11:55 AM 42.8 °F - 42.8 °F 100% 30.09 in 10.0 mi Calm Calm - N/A   Clear
12:15 PM 44.6 °F - 42.8 °F 93% 30.08 in 10.0 mi Calm Calm - N/A   Clear
12:35 PM 46.4 °F 45.2 °F 44.6 °F 93% 30.07 in 10.0 mi NE 3.5 mph - N/A   Clear
12:55 PM 50.0 °F - 39.2 °F 66% 30.05 in 10.0 mi NE 4.6 mph - N/A   Mostly Cloudy
1:15 PM 51.8 °F - 39.2 °F 62% 30.04 in 10.0 mi ENE 5.8 mph - N/A   Scattered Clouds
1:35 PM 51.8 °F - 39.2 °F 62% 30.02 in 10.0 mi ENE 6.9 mph - N/A   Clear
1:55 PM 51.8 °F - 39.2 °F 62% 30.01 in 10.0 mi ENE 5.8 mph - N/A   Clear
2:15 PM 53.6 °F - 39.2 °F 58% 30.00 in 10.0 mi ENE 4.6 mph - N/A   Clear
2:35 PM 53.6 °F - 41.0 °F 62% 29.99 in 10.0 mi East 6.9 mph - N/A   Clear
2:55 PM 55.4 °F - 41.0 °F 58% 29.98 in 10.0 mi East 4.6 mph - N/A   Clear
3:15 PM 55.4 °F - 41.0 °F 58% 29.97 in 10.0 mi East 5.8 mph - N/A   Clear
3:35 PM 55.4 °F - 41.0 °F 58% 29.97 in 10.0 mi ESE 6.9 mph - N/A   Clear
3:55 PM 55.4 °F - 41.0 °F 58% 29.96 in 10.0 mi SE 5.8 mph - N/A   Clear
4:15 PM 55.4 °F - 41.0 °F 58% 29.96 in 10.0 mi East 5.8 mph - N/A   Clear
4:35 PM 55.4 °F - 42.8 °F 63% 29.95 in 10.0 mi ESE 6.9 mph - N/A   Clear
5:15 PM 53.6 °F - 42.8 °F 67% 29.95 in 10.0 mi East 4.6 mph - N/A   Scattered Clouds
5:35 PM 53.6 °F - 42.8 °F 67% 29.94 in 10.0 mi East 4.6 mph - N/A   Mostly Cloudy
5:55 PM 51.8 °F - 42.8 °F 71% 29.94 in 10.0 mi ENE 3.5 mph - N/A   Scattered Clouds
6:15 PM 51.8 °F - 42.8 °F 71% 29.94 in 10.0 mi Calm Calm - N/A   Clear
6:35 PM 50.0 °F - 42.8 °F 76% 29.94 in 10.0 mi Calm Calm - N/A   Clear
6:55 PM 50.0 °F - 42.8 °F 76% 29.94 in 10.0 mi Calm Calm - N/A   Clear
7:15 PM 46.4 °F - 42.8 °F 87% 29.94 in 10.0 mi Calm Calm - N/A   Clear
7:35 PM 46.4 °F - 42.8 °F 87% 29.93 in 10.0 mi Calm Calm - N/A   Clear
7:55 PM 46.4 °F - 42.8 °F 87% 29.93 in 10.0 mi Calm Calm - N/A   Mostly Cloudy
8:15 PM 46.4 °F - 42.8 °F 87% 29.93 in 10.0 mi Calm Calm - N/A   Overcast
8:35 PM 46.4 °F - 44.6 °F 93% 29.92 in 10.0 mi Calm Calm - N/A   Overcast
8:55 PM 46.4 °F - 44.6 °F 93% 29.92 in 10.0 mi Calm Calm - N/A Rain Light Rain
9:15 PM 46.4 °F - 44.6 °F 93% 29.92 in 10.0 mi Calm Calm - N/A Rain Light Rain
9:35 PM 46.4 °F - 44.6 °F 93% 29.92 in 7.0 mi Calm Calm - N/A Rain Light Rain
9:55 PM 46.4 °F - 44.6 °F 93% 29.92 in 7.0 mi Calm Calm - N/A Rain Rain
10:15 PM 46.4 °F - 44.6 °F 93% 29.92 in 5.0 mi Calm Calm - 0.01 in Rain Rain
10:35 PM 46.4 °F - 44.6 °F 93% 29.91 in 4.0 mi Calm Calm - 0.01 in Rain Rain
11:35 PM 46.4 °F - 44.6 °F 93% 29.89 in 2.5 mi Calm Calm - N/A Rain Light Rain
11:55 PM 46.4 °F - 44.6 °F 93% 29.89 in 2.5 mi Calm Calm - N/A   Overcast